Iridium 67 - Orbit

View from above orbital plane
View from above orbital plane
View from above satellite
View from above satellite

Ground track
Ground track

The orbit data is extracted from the following two-line orbital elements,

1 25290U 98021F   13139.47820078  .00000188  00000-0  60079-4 0   681
2 25290 086.3958 126.6112 0002270 104.7962 255.3486 14.34218695791506
Epoch (UTC): 19 May 2013 11:28:36
Eccentricity: 0.0002270
inclination: 86.3958°
perigee height: 776 km
apogee height: 779 km
right ascension of ascending node: 126.6112°
argument of perigee: 104.7962°
revolutions per day: 14.34218695
mean anomaly at epoch: 255.3486°
orbit number at epoch: 79150

The dashed part of the orbit path shows where the satellite is in the earth's shadow,  

Developed and maintained by Chris Peat, Heavens-Above GmbH. Please read the updated FAQ before sending e-mail. Imprint. DLR